Home > Weather > Port Hedland > Past weeks

Flag for Australia Past Weather in Port Hedland, Western Australia, Australia — Yesterday and Last 2 Weeks

Now
77 °F

Sunny.


Feels Like: 77 °F
Forecast: 62 / 76 °F
Wind: 14 mph from Southeast

Location: Port Hedland Pardoo

Current Time: Jun 26, 2016 at 2:30:06 PM

Latest Report: Jun 26, 2016 at 2:00 PM


Visibility: N/A

Pressure: 29.98 "Hg

Humidity: 19%

Dew Point: 32 °F

Location of Port HedlandLocation

Past Weather in Port Hedland — Graph

°F

Port Hedland Temperature Yesterday

Maximum temperature yesterday: 79 °F (at 3:00 PM)
Minimum temperature yesterday: 66 °F (at 7:02 AM)
Average temperature yesterday: 71 °F

High & Low Weather Summary for the Past Weeks

 TemperatureHumidityPressure
High88 °F (Jun 15, 12:00 PM)100% (Jun 15, 4:00 PM)30.12 "Hg (Jun 15, 4:00 PM)
Low61 °F (Jun 14, 6:30 AM)13% (Jun 11, 3:00 PM)29.83 "Hg (Jun 17, 1:00 PM)
Average73 °F62%29.96 "Hg
* Reported Jun 11 1:00 PM — Jun 26 1:00 PM, Port Hedland, Weather by CustomWeather, © 2016

Note: Actual official high and low records may vary slightly from our data, if they occured in-between our weather recording intervals... More about our weather records

Advertising

Port Hedland Weather History for the Previous 24 Hours

Scroll right to see more
 ConditionsComfort  
Time TempWeatherWind HumidityBarometerVisibility
1:00 PM
Sun, Jun 26
75 °FSunny.16 mph24%30.01 "HgN/A
12:30 PM73 °FSunny.17 mph25%30.01 "HgN/A
12:00 PM73 °FSunny.18 mph27%30.01 "HgN/A
11:02 AM72 °FSunny.21 mph31%30.04 "HgN/A
10:00 AM70 °FSunny.23 mph35%30.07 "HgN/A
9:00 AM68 °FSunny.24 mph40%30.07 "HgN/A
8:00 AM64 °FSunny.17 mph60%30.07 "HgN/A
7:30 AM63 °FSunny.13 mph64%30.07 "HgN/A
7:00 AM63 °FSunny.13 mph64%30.07 "HgN/A
6:00 AM63 °FSunny.15 mph64%30.04 "HgN/A
5:30 AM63 °FClear.14 mph59%30.04 "HgN/A
5:00 AM63 °FClear.12 mph64%30.04 "HgN/A
4:30 AM63 °FClear.10 mph73%30.04 "HgN/A
4:00 AM63 °FClear.9 mph83%30.04 "HgN/A
3:00 AM66 °FClear.12 mph73%30.04 "HgN/A
2:30 AM66 °FClear.12 mph73%30.04 "HgN/A
2:00 AM66 °FPassing clouds.12 mph78%30.04 "HgN/A
1:30 AM68 °FPassing clouds.12 mph73%30.04 "HgN/A
1:00 AM68 °FOvercast.13 mph73%30.04 "HgN/A
12:00 AM70 °FPassing clouds.13 mph69%30.01 "HgN/A
11:00 PM
Sat, Jun 25
70 °FPassing clouds.12 mph69%30.01 "HgN/A
10:30 PM70 °FPassing clouds.12 mph73%30.01 "HgN/A
10:00 PM72 °FPassing clouds.13 mph73%30.01 "HgN/A
9:30 PM72 °FPassing clouds.9 mph78%30.01 "HgN/A
9:00 PM72 °FPassing clouds.10 mph78%29.98 "HgN/A
8:30 PM72 °FPassing clouds.8 mph83%29.98 "HgN/A
8:00 PM73 °FClear.6 mph78%29.98 "HgN/A
7:00 PM73 °FPassing clouds.7 mph78%29.95 "HgN/A
6:00 PM75 °FPassing clouds.10 mph69%29.95 "HgN/A
5:30 PM77 °FPartly cloudy.10 mph65%29.92 "HgN/A
5:00 PM77 °FPartly cloudy.8 mph65%29.89 "HgN/A
4:30 PM79 °FOvercast.7 mph65%29.89 "HgN/A
4:00 PM79 °FMostly cloudy.9 mph65%29.89 "HgN/A
3:30 PM79 °FBroken clouds.9 mph61%29.89 "HgN/A
3:00 PM79 °FBroken clouds.8 mph65%29.89 "HgN/A
2:00 PM77 °FScattered clouds.10 mph65%29.89 "HgN/A
Weather by CustomWeather, © 2016

See weather overviewHow to use our weather pages